[[{"header":{"parameterUnit":"m.s-1","parameterCategory":1,"la1":30.2991,"la2":30.254,"lo1":-89.0895,"lo2":-89.0444,"dy":0.0017,"dx":0.0017,"nx":28,"ny":28,"refTime":"2024-02-16T03:00:00:Z","depth":0,"parameterNumber":2,"parameterNumberName":"U-component_of_WINDS"},"data":[0,0,0,0,0,0,0,0,0,0,0,0,0,0,0,0,0,0,0,0,0,0,0,0,0,0,0,0,0,0,0,0,0,0,0,0,0,0,0,0,0,0,0,0,0,0,0,0,0,0,0,0,0,0,0,0,0,0,-0.3205,-0.3205,0,-0.3213,-0.3213,-0.3213,-0.3195,-0.3194,-0.3194,-0.3193,-0.3205,-0.3206,-0.3206,0,0,0,0,0,0,0,0,0,0,0,0,0,-0.3175,-0.3175,-0.3205,-0.3205,-0.3205,-0.3213,-0.3213,-0.3213,-0.3195,-0.3194,-0.3194,-0.3193,-0.3204,-0.3205,-0.3206,0,0,0,0,0,0,0,0,0,0,0,0,0,-0.3186,-0.3175,-0.3205,-0.3197,-0.3196,-0.3213,-0.3213,-0.3213,-0.3195,-0.3194,-0.3193,-0.3193,-0.3204,-0.3205,-0.3207,-0.3233,0,0,-0.3211,-0.3211,0,0,0,0,0,0,0,0,-0.3185,-0.3187,-0.3198,-0.3197,-0.3196,-0.3202,-0.3207,-0.322,-0.3195,-0.3196,-0.3193,-0.3192,-0.3205,-0.3206,-0.321,-0.3233,-0.3234,-0.3211,-0.3211,-0.3212,-0.3212,0,0,0,0,0,0,0,-0.3185,-0.3187,-0.3208,-0.3198,-0.3197,-0.3193,-0.3194,-0.3209,-0.3205,-0.3196,-0.3194,-0.3195,-0.3204,-0.3208,-0.321,-0.3234,-0.3211,-0.3212,-0.3213,-0.3213,-0.3279,-0.328,0,0,0,0,0,0,-0.3184,-0.3186,-0.3208,-0.3208,-0.3188,-0.3195,-0.3195,-0.3201,-0.3205,-0.3205,-0.3196,-0.3194,-0.3207,-0.3208,-0.321,-0.3241,-0.3212,-0.3213,-0.3214,-0.3278,-0.3279,-0.328,0,0,0,0,0,0,-0.3184,-0.3187,-0.3207,-0.3197,-0.3199,-0.3196,-0.3203,-0.3202,-0.3206,-0.3205,-0.3205,-0.3201,-0.3206,-0.3208,-0.3227,-0.3241,-0.3214,-0.3215,-0.3277,-0.3278,-0.328,-0.3303,0,0,0,0,0,0,-0.3183,-0.3186,-0.3196,-0.3197,-0.32,-0.3224,-0.3204,-0.3203,-0.3208,-0.3206,-0.321,-0.321,-0.3205,-0.3225,-0.3228,-0.3242,-0.3216,-0.3276,-0.3278,-0.3279,-0.3301,-0.3305,-0.3308,0,0,0,0,0,-0.3182,-0.3203,-0.3196,-0.3199,-0.3211,-0.3224,-0.3226,-0.322,-0.3209,-0.3219,-0.3218,-0.3209,-0.3239,-0.3227,-0.3231,-0.3245,-0.3275,-0.3277,-0.3279,-0.3299,-0.3304,-0.3308,0,0,0,0,0,0,-0.3204,-0.3203,-0.3196,-0.3217,-0.3221,-0.3221,-0.3234,-0.3226,-0.3233,-0.3231,-0.3224,-0.3225,-0.3246,-0.3247,-0.3234,-0.327,-0.3255,-0.3258,-0.3269,-0.3274,-0.3277,-0.3277,-0.3217,0,0,0,0,0,-0.3211,-0.3221,-0.322,-0.3239,-0.3241,-0.3237,-0.3242,-0.3237,-0.3241,-0.3243,-0.3244,-0.3249,-0.3259,-0.3266,-0.3276,-0.33,-0.3301,-0.3312,-0.3316,-0.3319,-0.3322,-0.3335,-0.334,-0.3288,-0.3288,-0.3287,0,0,-0.3227,-0.3227,-0.3234,-0.3243,-0.3246,-0.3257,-0.3238,-0.3251,-0.326,-0.3245,-0.3263,-0.3264,-0.3269,-0.3291,-0.33,-0.3293,-0.3337,-0.3322,-0.3324,-0.3326,-0.3338,-0.3343,-0.3348,-0.3289,-0.3289,-0.3289,0,0,-0.3261,-0.3262,-0.3278,-0.328,-0.3283,-0.328,-0.3284,-0.3286,-0.3285,-0.3302,-0.3292,-0.3302,-0.332,-0.3324,-0.3328,-0.3363,-0.3355,-0.3366,-0.3386,-0.3399,-0.3403,-0.3407,-0.342,-0.3424,-0.3369,-0.3369,-0.3369,0,-0.328,-0.3296,-0.3287,-0.3301,-0.3305,-0.3291,-0.3308,-0.3311,-0.3317,-0.3321,-0.3312,-0.3334,-0.3336,-0.3359,-0.3367,-0.3371,-0.3375,-0.3366,-0.3403,-0.3407,-0.341,-0.3422,-0.3427,-0.337,-0.337,-0.337,-0.337,0,-0.3319,-0.333,-0.3343,-0.3349,-0.3354,-0.3369,-0.3364,-0.3371,-0.3365,-0.3363,-0.3381,-0.3383,-0.3392,-0.3397,-0.3392,-0.3419,-0.3414,-0.3404,-0.3389,-0.3417,-0.3428,-0.3433,-0.3372,-0.3372,-0.3371,-0.3371,0,0,-0.3369,-0.3369,-0.3374,-0.3376,-0.3378,-0.3387,-0.3401,-0.3409,-0.3416,-0.342,-0.3433,-0.3447,-0.3438,-0.3443,-0.3438,-0.3449,-0.3477,-0.3438,-0.3438,-0.3446,-0.3507,-0.3515,-0.3521,-0.3471,-0.3472,-0.3473,-0.3507,0,-0.3403,-0.3427,-0.3419,-0.3443,-0.3454,-0.344,-0.3452,-0.3456,-0.3454,-0.3463,-0.3461,-0.3472,-0.3458,-0.3461,-0.3472,-0.3471,-0.3489,-0.3468,-0.3483,-0.3484,-0.3483,-0.3527,-0.3535,-0.3568,-0.3511,-0.3512,-0.3513,0,-0.3447,-0.3452,-0.3477,-0.3477,-0.3481,-0.3492,-0.3499,-0.3507,-0.351,-0.3508,-0.3513,-0.3506,-0.352,-0.3503,-0.3524,-0.351,-0.3515,-0.3516,-0.3517,-0.3519,-0.3501,-0.3531,-0.3578,-0.3583,-0.3519,-0.3519,-0.3518,0,-0.3481,-0.3494,-0.3511,-0.3513,-0.3513,-0.3522,-0.3522,-0.3524,-0.353,-0.3536,-0.3539,-0.3547,-0.3552,-0.3558,-0.3553,-0.3542,-0.3575,-0.3558,-0.3574,-0.3574,-0.3583,-0.3583,-0.3633,-0.3585,-0.3585,-0.3585,-0.3585,0,-0.3521,-0.3537,-0.3526,-0.3537,-0.3554,-0.3545,-0.3563,-0.3562,-0.3564,-0.3575,-0.3563,-0.3574,-0.3566,-0.3575,-0.3572,-0.3589,-0.3591,-0.3591,-0.359,-0.3592,-0.3592,-0.3597,-0.3595,-0.3586,-0.3586,-0.3585,-0.3585,0,-0.3563,-0.3556,-0.3574,-0.3572,-0.3572,-0.3585,-0.3584,-0.3594,-0.359,-0.3604,-0.3606,-0.3602,-0.3613,-0.3608,-0.3619,-0.3617,-0.364,-0.3635,-0.3638,-0.3638,-0.3655,-0.3653,-0.371,-0.3717,-0.3664,-0.3664,-0.3665,0,-0.3589,-0.3601,-0.36,-0.3605,-0.3606,-0.3616,-0.3621,-0.3612,-0.3618,-0.3622,-0.3631,-0.3641,-0.3648,-0.3666,-0.3664,-0.3673,-0.3669,-0.3688,-0.367,-0.3673,-0.367,-0.367,-0.3671,-0.3692,-0.3693,-0.3693,-0.3694,0,-0.3636,-0.3632,-0.3639,-0.3645,-0.3651,-0.3656,-0.366,-0.3665,-0.3656,-0.3664,-0.3674,-0.3679,-0.369,-0.37,-0.3707,-0.3709,-0.37,-0.3699,-0.3703,-0.3707,-0.3708,-0.3708,-0.3649,-0.3698,-0.3698,-0.3697,-0.3697,-0.3697,-0.3672,-0.3681,-0.3682,-0.369,-0.3692,-0.3695,-0.3704,-0.3702,-0.371,-0.3718,-0.3712,-0.3724,-0.3727,-0.3735,-0.3738,-0.3748,-0.374,-0.3747,-0.3748,-0.375,-0.3753,-0.3706,-0.3749,-0.3749,-0.3749,-0.3749,-0.3748,0,-0.3719,-0.3718,-0.3726,-0.3731,-0.3737,-0.3727,-0.373,-0.3737,-0.3747,-0.375,-0.3756,-0.3768,-0.3777,-0.3776,-0.3784,-0.3793,-0.3789,-0.3795,-0.3795,-0.3796,-0.3759,-0.3754,-0.3798,-0.3798,-0.3798,-0.3798,-0.3798,-0.3798,-0.3744,-0.376,-0.3756,-0.3773,-0.3772,-0.3784,-0.3786,-0.379,-0.3791,-0.3805,-0.3812,-0.381,-0.3811,-0.3819,-0.3828,-0.3827,-0.3831,-0.3839,-0.3837,-0.3803,-0.3798,-0.3794,-0.3789,-0.384,-0.384,-0.3873,-0.3873,-0.3874]},{"header":{"parameterUnit":"m.s-1","parameterCategory":1,"la1":30.2991,"la2":30.254,"lo1":-89.0895,"lo2":-89.0444,"dy":0.0017,"dx":0.0017,"nx":28,"ny":28,"refTime":"2024-02-16T03:00:00:Z","depth":0,"parameterNumber":3,"parameterNumberName":"V-component_of_WINDS"},"data":[0,0,0,0,0,0,0,0,0,0,0,0,0,0,0,0,0,0,0,0,0,0,0,0,0,0,0,0,0,0,0,0,0,0,0,0,0,0,0,0,0,0,0,0,0,0,0,0,0,0,0,0,0,0,0,0,0,0,-8.4835,-8.4836,0,-8.4906,-8.4907,-8.4908,-8.4808,-8.4805,-8.4801,-8.4798,-8.4864,-8.4869,-8.4874,0,0,0,0,0,0,0,0,0,0,0,0,0,-8.4609,-8.4613,-8.4835,-8.4836,-8.4837,-8.4906,-8.4907,-8.4908,-8.4809,-8.4805,-8.4801,-8.4797,-8.4862,-8.4868,-8.4874,0,0,0,0,0,0,0,0,0,0,0,0,0,-8.4696,-8.4615,-8.4835,-8.4796,-8.4794,-8.4906,-8.4907,-8.4908,-8.481,-8.4805,-8.4799,-8.4795,-8.486,-8.4868,-8.4875,-8.5027,0,0,-8.4898,-8.4901,0,0,0,0,0,0,0,0,-8.4691,-8.4704,-8.4801,-8.4799,-8.4796,-8.4843,-8.4851,-8.4948,-8.4811,-8.4804,-8.4798,-8.4792,-8.4861,-8.4868,-8.4893,-8.503,-8.5033,-8.4899,-8.4903,-8.4907,-8.4909,0,0,0,0,0,0,0,-8.4685,-8.4701,-8.4863,-8.4803,-8.48,-8.4773,-8.478,-8.4869,-8.4861,-8.4804,-8.4797,-8.4807,-8.4858,-8.4886,-8.4893,-8.5034,-8.4899,-8.4905,-8.491,-8.4913,-8.5299,-8.5305,0,0,0,0,0,0,-8.4685,-8.4696,-8.4861,-8.4865,-8.473,-8.4782,-8.4789,-8.4833,-8.4859,-8.4858,-8.4811,-8.4802,-8.4875,-8.4885,-8.4895,-8.5075,-8.4907,-8.4914,-8.4918,-8.5293,-8.53,-8.5307,0,0,0,0,0,0,-8.468,-8.47,-8.4858,-8.4779,-8.4797,-8.4791,-8.4842,-8.4837,-8.4865,-8.4865,-8.4862,-8.4841,-8.4872,-8.4885,-8.4995,-8.5076,-8.4917,-8.4924,-8.5287,-8.5296,-8.5303,-8.5436,0,0,0,0,0,0,-8.4674,-8.4699,-8.4758,-8.4781,-8.4802,-8.4959,-8.4847,-8.4843,-8.4879,-8.4867,-8.4892,-8.4891,-8.4868,-8.4985,-8.5003,-8.5083,-8.493,-8.5279,-8.5291,-8.5301,-8.5424,-8.5448,-8.5468,0,0,0,0,0,-8.4666,-8.4791,-8.4762,-8.4782,-8.4876,-8.4964,-8.4975,-8.4948,-8.4886,-8.4944,-8.4944,-8.4891,-8.5064,-8.4997,-8.5017,-8.5101,-8.5274,-8.5287,-8.53,-8.5414,-8.5443,-8.5468,0,0,0,0,0,0,-8.4775,-8.4793,-8.4761,-8.4897,-8.493,-8.4947,-8.502,-8.498,-8.5029,-8.5016,-8.4978,-8.4985,-8.5104,-8.5113,-8.5037,-8.5249,-8.5158,-8.5176,-8.5239,-8.5266,-8.5288,-8.5283,-8.4936,0,0,0,0,0,-8.4815,-8.4888,-8.4899,-8.5018,-8.5036,-8.5026,-8.5063,-8.504,-8.5071,-8.5084,-8.5092,-8.5123,-8.5184,-8.5226,-8.5282,-8.5425,-8.5429,-8.5492,-8.5514,-8.5532,-8.5548,-8.5624,-8.5653,-8.5349,-8.5349,-8.5349,0,0,-8.4898,-8.4917,-8.4965,-8.504,-8.5063,-8.5137,-8.5038,-8.512,-8.5174,-8.5095,-8.5201,-8.5209,-8.524,-8.5368,-8.5425,-8.538,-8.5633,-8.5549,-8.5563,-8.5569,-8.5641,-8.5669,-8.5695,-8.5358,-8.5356,-8.5355,0,0,-8.5088,-8.511,-8.5212,-8.5237,-8.5274,-8.5266,-8.5291,-8.5315,-8.5317,-8.5424,-8.5367,-8.5429,-8.5536,-8.5561,-8.5588,-8.5789,-8.5741,-8.5808,-8.5923,-8.5998,-8.6022,-8.6043,-8.6115,-8.6141,-8.5823,-8.5824,-8.5824,0,-8.5186,-8.5297,-8.5269,-8.5356,-8.5391,-8.5326,-8.5428,-8.5453,-8.5506,-8.553,-8.5479,-8.5613,-8.5629,-8.5762,-8.5812,-8.5836,-8.5862,-8.5805,-8.6021,-8.6042,-8.6061,-8.6129,-8.6156,-8.5832,-8.5831,-8.583,-8.5829,0,-8.5416,-8.5494,-8.5572,-8.5628,-8.5671,-8.5765,-8.5749,-8.5796,-8.5769,-8.5766,-8.5875,-8.5893,-8.5953,-8.5982,-8.5956,-8.6112,-8.6083,-8.6027,-8.5936,-8.6098,-8.6162,-8.6187,-8.5843,-8.584,-8.5838,-8.5836,0,0,-8.5675,-8.5715,-8.5744,-8.5769,-8.5805,-8.5864,-8.5955,-8.6016,-8.6057,-8.6095,-8.617,-8.6262,-8.6212,-8.6242,-8.6218,-8.6284,-8.6442,-8.622,-8.622,-8.6261,-8.6616,-8.6658,-8.6688,-8.6411,-8.6416,-8.642,-8.6613,0,-8.5865,-8.6025,-8.6003,-8.6156,-8.6228,-8.6167,-8.6246,-8.6276,-8.6276,-8.6335,-8.6334,-8.6401,-8.6328,-8.6347,-8.6409,-8.641,-8.6513,-8.6395,-8.6479,-8.6482,-8.6473,-8.6721,-8.6766,-8.6948,-8.6637,-8.6642,-8.6645,0,-8.6108,-8.6158,-8.632,-8.6346,-8.6375,-8.6447,-8.6502,-8.6559,-8.6591,-8.6587,-8.6622,-8.6586,-8.6675,-8.6583,-8.6705,-8.6626,-8.6658,-8.6664,-8.667,-8.6677,-8.6574,-8.6735,-8.7005,-8.7032,-8.6683,-8.668,-8.6677,0,-8.6281,-8.6389,-8.65,-8.6523,-8.6556,-8.6609,-8.6624,-8.6652,-8.669,-8.6736,-8.6761,-8.6816,-8.6847,-8.689,-8.6869,-8.6803,-8.6995,-8.69,-8.6992,-8.6993,-8.7035,-8.7033,-8.7315,-8.7057,-8.7056,-8.7056,-8.7055,0,-8.6496,-8.6597,-8.6579,-8.6647,-8.6759,-8.6731,-8.6841,-8.6849,-8.6874,-8.6941,-8.6891,-8.6955,-8.6924,-8.6985,-8.6969,-8.7073,-8.7086,-8.7084,-8.7079,-8.7089,-8.709,-8.711,-8.7097,-8.7063,-8.7061,-8.706,-8.7059,0,-8.6709,-8.6701,-8.6818,-8.6841,-8.6849,-8.693,-8.6948,-8.7011,-8.7008,-8.7094,-8.7112,-8.7106,-8.7176,-8.716,-8.7235,-8.7224,-8.7355,-8.7333,-8.7345,-8.734,-8.7433,-8.7425,-8.7738,-8.7777,-8.7494,-8.7496,-8.7499,0,-8.6846,-8.6923,-8.6956,-8.6999,-8.7019,-8.7089,-8.7128,-8.7103,-8.7146,-8.719,-8.7247,-8.7313,-8.7364,-8.7478,-8.7479,-8.7536,-8.7516,-8.7621,-8.7524,-8.7532,-8.7518,-8.7514,-8.7521,-8.7641,-8.7644,-8.7647,-8.7649,0,-8.7092,-8.7085,-8.7145,-8.7205,-8.7255,-8.73,-8.734,-8.7377,-8.7355,-8.7406,-8.7478,-8.7518,-8.7596,-8.7661,-8.7715,-8.7728,-8.7685,-8.768,-8.7704,-8.7716,-8.772,-8.7719,-8.7398,-8.7673,-8.767,-8.7668,-8.7667,-8.7666,-8.7271,-8.7337,-8.7371,-8.744,-8.7469,-8.7507,-8.7569,-8.7574,-8.7634,-8.7698,-8.7679,-8.7761,-8.779,-8.7858,-8.7878,-8.7941,-8.7901,-8.7936,-8.7945,-8.7954,-8.7966,-8.771,-8.795,-8.7949,-8.7949,-8.7948,-8.7948,0,-8.7515,-8.7534,-8.7598,-8.7657,-8.7712,-8.7669,-8.7711,-8.7759,-8.7833,-8.7865,-8.7918,-8.8,-8.8064,-8.8071,-8.813,-8.8179,-8.8161,-8.8195,-8.8191,-8.8195,-8.7998,-8.7971,-8.8209,-8.8209,-8.8209,-8.8209,-8.8209,-8.8209,-8.7648,-8.7758,-8.7755,-8.7878,-8.7895,-8.7977,-8.8005,-8.804,-8.8067,-8.8162,-8.8216,-8.8221,-8.8243,-8.8304,-8.836,-8.836,-8.8384,-8.8427,-8.8419,-8.8235,-8.8209,-8.8184,-8.8159,-8.8432,-8.8433,-8.8611,-8.8613,-8.8614]}]]